Tracking 29892 objects as of 21-Nov-2024
HD Live streaming from Space Station
objects crossing your sky now

STARLINK-1944

Track STARLINK-1944 now!
10-day predictions
STARLINK-1944 is classified as:


NORAD ID: 46796
Int'l Code: 2020-074BK
Perigee: 553.6 km
Apogee: 555.0 km
Inclination: 53.1 °
Period: 95.6 minutes
Semi major axis: 6925 km
RCS: Unknown
Launch date: October 24, 2020
Source: United States (US)
Launch site: AIR FORCE EASTERN TEST RANGE (AFETR)
Your satellite tracking list
Your tracking list is empty




NASA's NSSDC Master Catalog

Two Line Element Set (TLE):
1 46796U 20074BK  24325.31489226  .00010833  00000-0  74491-3 0  9999
2 46796  53.0544 281.1657 0000996 112.7599 247.3496 15.06406932225317
Source of the keplerian elements: AFSPC